Погода в Лесном Городке

Россия / Забайкальский край     51°44′02″N   113°04′08″E
темп.,
°C
ветер,
м/с
пор.,
м/с
влажн.,
%
обл.,
%
осадки,
мм/ч
давл.,
гПа
погр.,
м
30 ноября, вт
вт3000:00−11зюз31081100 0.0 1026468
03:00−10з4138275 0.0 1025605
06:00−10зсз515776 0.0 1025770
09:00−10зсз6147511 0.0 1024807
12:00−8зсз6136450 0.0 10241226
15:00−8сз6116122 0.0 10241127
18:00−10зсз411777 0.0 1026407
21:00−15зюз11955 0.0 102817
1 декабря, ср
ср100:00−16ююз119822 0.0 102817
03:00−16ююз219853 0.0 102628
06:00−12юз21092100 0.0 1022344
09:00−9зюз4128098 0.0 1019429
12:00−5зюз5146099 0.0 10161040
15:00−3з61750100 0.0 10121462
18:00−3з71849100 0.0 10091393
21:00−3зсз1021555 0.0 10071480
2 декабря, чт
чт200:00−6сз8177973 0.2 10081589
03:00−10сз715555 0.3 10131129
06:00−11сз614603 0.0 1015874
09:00−13сз514672 0.0 1018726
12:00−11сз612560 0.0 1020909
15:00−9зсз59530 0.0 1020836
18:00−12зсз512665 0.0 1022516
21:00−12з41269100 0.0 1022595
3 декабря, пт
пт300:00−10з41266100 0.0 1021784
03:00−14з2784100 0.0 1021184
06:00−12зсз29825 0.0 1020363
09:00−14юз259318 0.0 1021157
12:00−5зсз311697 0.0 1019838
15:00−3зсз411645 0.0 1017956
18:00−9юз128910 0.0 102043
21:00−10юз129368 0.0 102055
4 декабря, сб
сб400:00−10зюз22935 0.0 102139
03:00−12юз11935 0.0 102213
06:00−14зюз11925 0.0 102212
09:00−15юз11925 0.0 102212
12:00−7ююз12565 0.0 101997
15:00−4ю12534 0.0 1016130
18:00−12юз11905 0.0 101810
21:00−14з11925 0.0 101910